Home   Weather   23°07'N, 113°16'E   Past weeks
Flag for China

Past Weather in 23°07'N, 113°16'E, China — Yesterday and Last 2 Weeks

Now
81 °F

Passing clouds.


Feels Like: 82 °F
Forecast: 86 / 71 °F
Wind: 8 mph from North

Location: Canton Airport

Current Time: Oct 15, 2019 at 8:07:05 pm

Latest Report: Oct 15, 2019 at 7:00 pm


Visibility: N/A

Pressure: 30.07 "Hg

Humidity: 58%

Dew Point: 64 °F

Location of 23°07'N, 113°16'ELocation

Past Weather in 23°07'N, 113°16'E — Graph

°F

23°07'N, 113°16'E Temperature Yesterday

Maximum temperature yesterday: 86 °F (at 11:30 am)
Minimum temperature yesterday: 77 °F (at 4:30 am)
Average temperature yesterday: 81 °F

High & Low Weather Summary for the Past Weeks

 TemperatureHumidityPressure
High97 °F (Oct 1, 2:30 pm)94% (Oct 9, 2:00 am)30.15 "Hg (Oct 9, 2:00 am)
Low73 °F (Oct 9, 4:30 am)30% (Oct 1, 2:30 pm)29.74 "Hg (Sep 30, 7:00 pm)
Average84 °F63%29.92 "Hg
* Reported Sep 30 7:00 pm — Oct 15 7:00 pm, 23°07'N, 113°16'E. Weather by CustomWeather, © 2019

Note: Actual official high and low records may vary slightly from our data, if they occured in-between our weather recording intervals... More about our weather records

Advertising

23°07'N, 113°16'E Weather History for the Previous 24 Hours

Scroll right to see more
 ConditionsComfort  
Time TempWeatherWind HumidityBarometerVisibility
7:00 pm
Tue, Oct 15
81 °FPassing clouds.8 mph58%30.07 "HgN/A
6:30 pm81 °FPassing clouds.8 mph58%30.07 "HgN/A
6:00 pm81 °FPartly sunny.8 mph62%30.07 "HgN/A
5:30 pm81 °FPartly sunny.10 mph62%30.07 "HgN/A
4:30 pm82 °FPartly sunny.15 mph55%30.04 "HgN/A
4:00 pm84 °FPartly sunny.10 mph55%30.04 "HgN/A
3:30 pm84 °FPartly sunny.8 mph51%30.04 "HgN/A
3:00 pm84 °FPartly sunny.10 mph51%30.04 "HgN/A
2:30 pm86 °FScattered clouds.6 mph49%30.07 "HgN/A
2:00 pm84 °FScattered clouds.6 mph51%30.07 "HgN/A
1:30 pm86 °FScattered clouds.3 mph49%30.07 "HgN/A
1:00 pm84 °FScattered clouds.3 mph55%30.09 "HgN/A
12:30 pm84 °FScattered clouds.8 mph51%30.09 "HgN/A
12:00 pm84 °FPartly sunny.6 mph55%30.12 "HgN/A
11:30 am82 °FScattered clouds.6 mph55%30.12 "HgN/A
11:00 am82 °FPassing clouds.8 mph58%30.15 "HgN/A
10:30 am81 °FPassing clouds.10 mph62%30.15 "HgN/A
10:00 am81 °FPassing clouds.13 mph58%30.15 "HgN/A
9:30 am81 °FPassing clouds.8 mph58%30.15 "HgN/A
9:00 am81 °FPassing clouds.6 mph58%30.15 "Hg6 mi
8:30 am79 °FPartly sunny.8 mph61%30.15 "Hg6 mi
8:00 am77 °FPartly sunny.8 mph65%30.15 "Hg6 mi
7:30 am75 °FPartly sunny.8 mph69%30.12 "Hg6 mi
7:00 am75 °FScattered clouds.3 mph69%30.12 "Hg6 mi
6:30 am75 °FSunny.3 mph69%30.12 "Hg10 mi
6:00 am75 °FClear.6 mph69%30.09 "Hg10 mi
5:30 am75 °FClear.6 mph69%30.09 "Hg10 mi
5:00 am77 °FClear.8 mph65%30.09 "Hg10 mi
4:30 am77 °FClear.8 mph61%30.09 "Hg10 mi
4:00 am77 °FClear.6 mph61%30.09 "Hg10 mi
3:30 am77 °FClear.8 mph61%30.09 "Hg10 mi
3:00 am77 °FClear.10 mph61%30.09 "Hg10 mi
2:30 am77 °FClear.10 mph61%30.09 "Hg10 mi
2:00 am79 °FClear.13 mph58%30.09 "Hg10 mi
1:30 am79 °FClear.8 mph58%30.09 "Hg10 mi
1:00 am79 °FPassing clouds.3 mph61%30.12 "HgN/A
12:30 am79 °FClear.10 mph58%30.12 "Hg10 mi
12:00 am79 °FClear.6 mph58%30.12 "Hg10 mi
11:30 pm
Mon, Oct 14
79 °FPassing clouds.3 mph58%30.12 "HgN/A
11:00 pm79 °FClear.6 mph61%30.12 "Hg10 mi
10:30 pm79 °FPassing clouds.8 mph61%30.12 "HgN/A
10:00 pm81 °FPassing clouds.10 mph58%30.12 "HgN/A
9:30 pm81 °FPassing clouds.13 mph54%30.12 "HgN/A
9:00 pm81 °FPassing clouds.10 mph58%30.09 "HgN/A
8:30 pm81 °FPassing clouds.13 mph58%30.09 "HgN/A
8:00 pm81 °FPassing clouds.10 mph58%30.09 "HgN/A
Weather by CustomWeather, © 2019

See weather overview